Location: Molveno
(46.1500°N, 10.9667°E)
Time: 08:06:07
(UTC+00:00)

Resurs 1-3 - Pass Details

Date: 05 July 2020
Orbit: 630 x 632 km, 97.9° (Epoch: 06 August)

Event Time Altitude Azimuth Distance (km) Brightness Sun altitude
Rises 19:43:47 0° 175° (S) 2,912 6.6 -5.5°
Reaches altitude 10° 19:46:00 10° 179° (S) 2,008 5.8 -5.7°
Maximum altitude 19:50:19 58° 259° (W) 738 4.2 -6.3°
Drops below altitude 10° 19:54:40 10° 339° (NNW) 2,023 7.4 -6.9°
Sets 19:56:54 0° 344° (NNW) 2,936 8.2 -7.1°
